Zurück zum Katalog

STARLINK-36165

AktivKommunikationVLEO
NORAD 66937·PAYLOAD·🇺🇸 United States

Gestartet Dec 7, 2025 von Vandenberg Space Force Base

Loading…

Nächste Überflüge (nächste 24 Stunden)

TLE

AktuellSource: CelesTrak SupGP

Epoche: Sep 14, 2026, 21:09 UTC

1 66937C 25286N   26257.88173611  .00014454  00000+0  42691-3 0  2570
2 66937  53.1581 196.0115 0001327  95.2705 297.9642 15.34392557    14

Verfolge STARLINK-36165 in Echtzeit mit AllMySat

Download on the App Store